EW4077 Weather Reports


Display with metric or nautical units.
time (UTC)temp
F
wind
direction
speed
MPH
gust
MPH
rain 1hr
in
rain 24hr
in
rain mn
in
humidity
%
barometer
mb
20260508120006 60 121 3.0 9.0 0.00 0.00 0.00 93 1015.6
20260508114502 60 101 5.0 9.0 0.00 0.00 0.00 93 1015.4
20260508113004 60 105 4.0 7.0 0.00 0.00 0.00 93 1015.4
20260508111606 60 109 2.0 5.0 0.00 0.00 0.00 93 1015.3
20260508110110 60 109 1.0 4.0 0.00 0.00 0.00 92 1015.3
20260508104612 60 90 1.0 5.0 0.00 0.00 0.00 91 1015.4
20260508103101 60 86 2.0 7.0 0.00 0.00 0.00 91 1015.3
20260508101556 60 194 4.0 9.0 0.00 0.00 0.00 90 1015.4
20260508100056 60 94 1.0 3.0 0.00 0.00 0.00 89 1015.5
20260508094554 60 105 0.0 7.0 0.00 0.00 0.00 89 1015.4
20260508093054 60 113 1.0 6.0 0.00 0.00 0.00 88 1015.5
20260508091606 60 81 2.0 5.0 0.00 0.00 0.00 88 1015.6
20260508090050 60 155 2.0 7.0 0.00 0.00 0.00 88 1015.7
20260508084556 60 134 1.0 3.0 0.00 0.00 0.00 89 1015.8
20260508083054 60 90 1.0 2.0 0.00 0.00 0.00 89 1015.8
20260508081548 60 128 1.0 0.0 0.00 0.00 0.00 89 1015.9
20260508074542 60 184 0.0 2.0 0.00 0.00 0.00 90 1016.1
20260508073049 60 258 2.0 4.0 0.00 0.00 0.00 90 1016.1
20260508071534 60 242 3.0 4.0 0.00 0.00 0.00 90 1016.1
20260508070030 60 200 2.0 5.0 0.00 0.00 0.00 90 1016.1
20260508064540 60 214 3.0 5.0 0.00 0.00 0.00 90 1016.0
20260508063029 60 183 3.0 6.0 0.00 0.00 0.00 90 1015.9
20260508061532 60 206 2.0 7.0 0.00 0.00 0.00 90 1015.8
20260508060130 60 211 4.0 8.0 0.00 0.00 0.00 89 1015.9
20260508054539 60 236 5.0 10.0 0.00 0.00 0.00 89 1015.9
20260508053026 60 192 6.0 10.0 0.00 0.00 0.00 89 1015.8
20260508051530 60 241 5.0 9.0 0.00 0.00 0.00 89 1015.8
20260508050024 60 210 7.0 11.0 0.00 0.00 0.00 89 1015.6
20260508044524 60 244 6.0 12.0 0.00 0.00 0.00 90 1015.7
20260508043024 61 252 10.0 13.0 0.00 0.00 0.00 90 1015.5
20260508041522 61 211 4.0 10.0 0.00 0.00 0.00 89 1015.3
20260508040038 61 223 8.0 12.0 0.00 0.00 0.00 88 1015.0
20260508034529 61 236 8.0 12.0 0.00 0.00 0.00 88 1014.8
20260508033021 61 233 7.0 11.0 0.00 0.00 0.00 87 1014.6
20260508031522 61 267 8.0 13.0 0.00 0.00 0.00 86 1014.3
20260508030022 61 241 8.0 14.0 0.00 0.00 0.00 87 1014.1
20260508024524 61 255 10.0 16.0 0.00 0.00 0.00 87 1013.9
20260508023019 61 242 11.0 16.0 0.00 0.00 0.00 86 1013.8
20260508021518 62 262 11.0 17.0 0.00 0.00 0.00 86 1013.6
20260508020017 62 227 12.0 18.0 0.00 0.00 0.00 85 1013.6
20260508014516 62 234 11.0 19.0 0.00 0.00 0.00 85 1013.5
20260508013015 63 252 10.0 17.0 0.00 0.00 0.00 84 1013.4
20260508011515 63 246 10.0 18.0 0.00 0.00 0.00 84 1013.3
20260508010015 63 241 10.0 19.0 0.00 0.00 0.00 84 1013.4
20260508004513 62 227 14.0 20.0 0.00 0.00 0.00 85 1013.3
20260508003011 62 250 15.0 21.0 0.00 0.00 0.00 85 1013.4
20260508001508 63 238 15.0 19.0 0.00 0.00 0.00 84 1013.5
20260508000008 63 227 14.0 21.0 0.00 0.00 0.00 84 1013.5
20260507234511 63 247 13.0 20.0 0.00 0.00 0.00 84 1013.5
20260507233008 63 240 11.0 21.0 0.00 0.00 0.00 84 1013.5
20260507231503 63 246 15.0 21.0 0.00 0.00 0.00 83 1013.6
20260507230007 63 227 12.0 20.0 0.00 0.00 0.00 83 1013.7
20260507224600 62 232 17.0 22.0 0.00 0.00 0.00 84 1013.8
20260507223105 62 226 17.0 22.0 0.00 0.00 0.00 84 1013.9
20260507221552 62 254 17.0 23.0 0.00 0.00 0.00 83 1014.1
20260507220049 63 228 12.0 21.0 0.00 0.00 0.00 83 1014.3
20260507214548 63 247 16.0 22.0 0.00 0.00 0.00 83 1014.4
20260507213044 63 236 10.0 20.0 0.00 0.00 0.00 83 1014.6
20260507211549 62 221 15.0 21.0 0.00 0.00 0.00 84 1014.7
20260507210059 63 232 14.0 19.0 0.00 0.00 0.00 82 1015.0
20260507204544 64 225 10.0 18.0 0.00 0.00 0.00 81 1015.1
20260507203038 64 213 9.0 16.0 0.00 0.00 0.00 81 1015.2
20260507201533 64 225 6.0 10.0 0.00 0.00 0.00 80 1015.3
20260507200031 65 224 5.0 10.0 0.00 0.00 0.00 78 1015.6
20260507194545 65 187 5.0 10.0 0.00 0.00 0.00 78 1015.8
20260507193029 65 155 5.0 9.0 0.00 0.00 0.00 78 1015.9
20260507191527 64 140 6.0 10.0 0.00 0.00 0.00 78 1016.0
20260507190039 64 170 7.0 9.0 0.00 0.00 0.00 78 1016.2
20260507184532 64 148 4.0 9.0 0.00 0.00 0.00 79 1016.3
20260507183024 64 184 6.0 8.0 0.00 0.00 0.00 78 1016.4
20260507181524 64 174 5.0 9.0 0.00 0.00 0.00 79 1016.4
20260507180022 64 170 6.0 9.0 0.00 0.00 0.00 79 1016.4
20260507174521 64 164 6.0 9.0 0.00 0.00 0.00 80 1016.4
20260507173036 64 184 6.0 9.0 0.00 0.00 0.00 80 1016.5
20260507171519 64 167 3.0 10.0 0.00 0.00 0.00 80 1016.4
20260507170021 64 163 4.0 10.0 0.00 0.00 0.00 79 1016.5
20260507164523 64 202 3.0 6.0 0.00 0.00 0.00 79 1016.5
20260507163018 65 171 3.0 7.0 0.00 0.00 0.00 79 1016.5
20260507161516 64 213 3.0 5.0 0.00 0.00 0.00 80 1016.5
20260507160014 64 166 3.0 6.0 0.00 0.00 0.00 78 1016.6
20260507154514 65 162 1.0 4.0 0.00 0.00 0.00 77 1016.5
20260507153011 64 150 1.0 3.0 0.00 0.00 0.00 78 1016.6
20260507151510 64 127 2.0 3.0 0.00 0.00 0.00 77 1016.7
20260507150007 63 76 0.0 2.0 0.00 0.00 0.00 79 1016.6
20260507144505 63 340 0.0 1.0 0.00 0.00 0.00 81 1016.5
20260507143016 62 286 1.0 1.0 0.00 0.00 0.00 79 1016.4
20260507141604 61 302 0.0 1.0 0.00 0.00 0.00 83 1016.3
20260507140058 60 302 0.0 2.0 0.00 0.00 0.00 85 1016.3
20260507134558 60 280 1.0 3.0 0.00 0.00 0.00 88 1016.1
20260507133058 59 274 1.0 6.0 0.00 0.00 0.00 89 1015.9
20260507131602 59 250 3.0 5.0 0.00 0.00 0.00 90 1015.9
20260507130057 59 238 2.0 5.0 0.00 0.00 0.00 91 1015.8
20260507124603 59 265 1.0 3.0 0.00 0.00 0.00 91 1015.7
20260507123055 59 261 1.0 3.0 0.00 0.00 0.00 91 1015.7
20260507121555 58 280 0.0 1.0 0.00 0.00 0.00 90 1015.7